Skip Page Navigation
NASA JPL Caltech
NASA Logo - Jet Propulsion Laboratory + View the NASA Portal
+ Center for Near-Earth Object Studies
JPL Home Earth Solar System Stars & Galaxies Technology
JPL Solar System Dynamics
BODIES ORBITS EPHEMERIDES TOOLS PHYSICAL DATA DISCOVERY FAQ SITE MAP
IMPORTANT: The SSD Announcement email list is now available. Major changes are coming in the near future, including possible hostname and/or URL changes. To be notified of such changes, subscribe to this email list.

Please visit this page for more details.


JPL Small-Body Database Browser
Search: [ help ]  
59001 Senftenberg (1998 SZ35)
Classification: Main-belt Asteroid          SPK-ID: 2059001
Ephemeris | Orbit Diagram | Orbital Elements | Mission Design | Physical Parameters | Discovery Circumstances ]

[ show orbit diagram ]
Orbital Elements at Epoch 2458600.5 (2019-Apr-27.0) TDB
Reference: JPL 15 (heliocentric ecliptic J2000)
 Element Value Uncertainty (1-sigma)   Units 
e .218824996706998 7.0929e-08  
a 2.578764459210923 1.2332e-08 au
q 2.014466334915969 1.7829e-07 au
i 8.587258657479042 6.5167e-06 deg
node 41.78189276968697 3.7819e-05 deg
peri 317.5724761623127 3.9979e-05 deg
M 356.6133823306317 1.7023e-05 deg
tp 2458614.729171380409
(2019-May-11.22917138)
7.1589e-05 TDB
period 1512.571597107038
4.14
1.085e-05
2.971e-08
d
yr
n .2380052624871049 1.7072e-09 deg/d
Q 3.143062583505876 1.503e-08 au
  Orbit Determination Parameters
   # obs. used (total)      656  
   data-arc span      10610 days (29.05 yr)  
   first obs. used      1990-11-16  
   last obs. used      2019-12-04  
   planetary ephem.      DE431  
   SB-pert. ephem.      SB431-N16  
   condition code      0  
   norm. resid. RMS      .56707  
   source      ORB  
   producer      Otto Matic  
   solution date      2019-Dec-14 06:05:42  

Additional Information
 Earth MOID = 1.02069 au 
 Jupiter MOID = 2.33165 au 
 T_jup = 3.376 
[ show covariance matrix ]

Ephemeris | Orbit Diagram | Orbital Elements | Mission Design | Physical Parameters | Discovery Circumstances ]

Physical Parameter Table
Parameter Symbol Value Units Sigma Reference Notes
absolute magnitude H 15.2   n/a MPO263805  
diameter diameter 2.652 km 0.587 urn:nasa:pds:neowise_diameters_albedos::2.0[mainbelt] (http://adsabs.harvard.edu/abs/2011ApJ...741...68M)  
geometric albedo albedo 0.229   0.059 urn:nasa:pds:neowise_diameters_albedos::2.0[mainbelt] (http://adsabs.harvard.edu/abs/2011ApJ...741...68M)  

59001 Senftenberg           Discovered 1998 Sept. 26 by J. Ticha and M. Tichy at Klet.
Senftenberg (now Žamberk) is where two comets were discovered by Theodor Brorsen in 1851. It is a pleasant market-town located at the foot of the Orlické mountains in eastern Bohemia. It is the birthplace of Prokop Diviš, astronomer August Seydler and surgeon Eduard Albert.
NOTE: some special characters may not display properly (any characters within {} are an attempt to place the proper accent above a character)
Reference: 20050721/MPCPages.arcLast Updated: 2005-07-21
Ephemeris | Orbit Diagram | Orbital Elements | Mission Design | Physical Parameters | Discovery Circumstances ]
ABOUT SSD CREDITS/AWARDS PRIVACY/COPYRIGHT GLOSSARY LINKS
FirstGov 2020-Jan-19 16:43 UT
(server date/time)  
NASA Home Page
Site Manager:   Ryan S. Park
Webmaster  Alan B. Chamberlin